www.pogodaiklimat.ru

Погода и климат >> Архив погоды >> Россия >> Волгоградская область >> Калач-на-Дону


ПОГОДА в Калаче-на-Дону

  • Прогноз погоды в Калаче-на-Дону
  • Монитор погоды в Калаче-на-Дону
  • Климат города

АРХИВ ПОГОДЫ в Калаче-на-Дону

Время (UTC), дата Ветер
(напр.,м/с)
 
Видим.   Явления Облачность Т
(С)
Тd
(С)
f
(%)
Тe
(С)
Тes
(С)
Комфортность P
(гПа)
Po
(гПа)
Тmin
(С)
Tmax
(С)
R
(мм)
R24
(мм)
S
(см)
06 17.08 ЮВ 4 20 км ясно +28.6 +5.2 23 +27 +33 жарко 1019.2 1014.9
09 17.08 ЮВ 4
{10}
20 км ясно +32.6 +1.0 13 +29 +39 жарко 1018.4 1014.1
12 17.08 В 5-10
{11}
20 км 3/3 600 м
[Cb cap]
+34.3 +1.0 12 +31 +34 жарко 1016.9 1012.7
15 17.08 В 4
{10}
20 км 4/3 600 м
[Cb cap Ac trans]
+32.5 +0.4 13 +29 +30 жарко 1016.7 1012.4 +34.5
18 17.08 Ю 1 10 км 3/0
[Ac trans]
+22.4 +8.0 40 +24 +24 комфорт 1018.2 1013.8
21 17.08 штиль 0 10 км ясно +17.6 +8.5 55 +18 +18 1019.1 1014.6
00 18.08 СЗ 1 10 км ясно +18.7 +6.1 44 +20 +20 1019.8 1015.3
03 18.08 СЗ 1 20 км 1/1 600 м
[Cb cap]
+19.0 +7.2 46 +21 +21 комфорт 1020.3 1015.8 +16.2
06 18.08 В 3 20 км 1/0
[Ac trans]
+27.0 +7.1 28 +27 +33 жарко 1020.5 1016.1
09 18.08 ЮВ 4 20 км 1/0
[Ac trans]
+33.3 +2.6 14 +30 +39 жарко 1019.5 1015.2
12 18.08 ЮВ 5 20 км 6/6 1000 м
[Cu med, cong]
+33.8 +1.8 13 +31 +32 жарко 1018.6 1014.3
15 18.08 В 4
{12}
20 км 9/9 1000 м
[Cu med, cong]
+31.8 +2.3 15 +29 +29 жарко 1018.6 1014.3 +34.5
18 18.08 С 2 10 км 9/0
[Ac trans]
+26.4 +6.5 28 +26 +26 жарко 1020.3 1015.9
21 18.08 СЗ 2 10 км ясно +22.2 +10.3 47 +24 +24 комфорт 1020.5 1016.1
00 19.08 СЗ 1 10 км ясно +19.4 +9.9 54 +21 +21 комфорт 1020.7 1016.2
03 19.08 СЗ 1 20 км 9/0
[Ac As]
+19.4 +9.0 51 +21 +22 комфорт 1021.3 1016.8 +18.6
06 19.08 В 4 20 км 8/0
[Ac trans Ci]
+27.6 +7.7 28 +27 +31 жарко 1021.4 1017.0
09 19.08 В 4
{10}
20 км 4/0
[Ci fib]
+32.7 +6.2 19 +31 +40 жарко 1020.4 1016.1
12 19.08 ЮВ 2 20 км 8/8 600 м
[Cb cap]
+34.4 +3.1 14 +31 +33 жарко 1019.3 1015.0
15 19.08 В 3
{10}
20 км 8/5 600 м
[Cb cap Ci]
+31.6 +4.8 18 +29 +30 жарко 1019.2 1014.9 +34.9
18 19.08 СЗ 1
{10}
10 км 5/0
[Ac trans Ci fib]
+23.4 +7.7 37 +24 +24 комфорт 1020.3 1015.9
21 19.08 С 1 10 км 4/0
[Ci fib]
+21.1 +8.5 44 +22 +22 комфорт 1020.7 1016.2
00 20.08 СЗ 2 10 км 6/0
[Ci]
+20.0 +7.4 44 +22 +22 комфорт 1020.6 1016.1
03 20.08 СЗ 1 20 км 8/0
[Ac trans]
+19.0 +9.2 53 +21 +21 комфорт 1020.8 1016.3 +17.0
06 20.08 З 2 20 км 5/3 600 м
[Cb cap Ac trans Ci fib]
+23.6 +12.6 50 +26 +30 жарко 1020.9 1016.5
09 20.08 ЮВ 4 20 км 9/0
[Ac trans Ci fib]
+34.1 +1.5 13 +31 +37 жарко 1019.6 1015.3
12 20.08 ЮВ 3 20 км 9/4 600 м
[Cb cap Ac trans]
+32.8 +2.6 15 +30 +32 жарко 1018.8 1014.5
15 20.08 Ю 4
{11}
20 км 9/5 600 м
[Cb cap Ac trans Ci fib]
+30.2 +4.0 19 +28 +28 жарко 1018.7 1014.3 +35.1
18 20.08 Ю 2 10 км 8/0
[Ac trans]
+26.9 +5.6 26 +26 +26 жарко 1020.4 1016.0
21 20.08 штиль 0 10 км 9/0
[Ac trans]
+22.8 +12.7 53 +26 +26 жарко 1019.4 1015.0
00 21.08 С 1 10 км 10/0
[Ac trans]
+21.7 +12.3 55 +24 +24 комфорт 1020.0 1015.5
03 21.08 СЗ 1 20 км 8/0
[Ac trans]
+21.1 +9.7 48 +22 +23 комфорт 1020.0 1015.6 +20.2
06 21.08 В 3 20 км 6/0
[Ac trans Ci fib]
+30.4 +6.1 22 +29 +33 жарко 1018.7 1014.3
09 21.08 В 5-10
{10}
20 км 4/3 600 м
[Cb cap Ci fib]
+33.3 +2.2 14 +30 +35 жарко 1017.3 1013.0
12 21.08 В 6-11
{13}
20 км 8/8 600 м
[Cb cap]
+33.5 +0.8 13 +30 +31 жарко 1015.4 1011.2
15 21.08 ЮВ 3
{12}
20 км 4/0
[Ac trans]
+31.9 -0.6 12 +29 +29 жарко 1014.5 1010.2 +34.1
18 21.08 штиль 0 10 км 3/0
[Ac trans]
+19.1 +2.7 34 +20 +20 1015.3 1010.8
21 21.08 З 1 10 км 3/0
[Ac trans]
+17.9 +7.0 49 +19 +19 1015.4 1010.9
00 22.08 штиль 0 10 км ясно +15.2 +8.5 64 +15 +15 1015.0 1010.5
03 22.08 СЗ 1 20 км 1/0
[Ac trans]
+16.1 +6.3 52 +17 +17 1014.9 1010.4 +15.1
06 22.08 ЮВ 4 20 км ясно +27.6 +3.0 21 +26 +31 жарко 1014.1 1009.7
09 22.08 ЮВ 5-11
{11}
20 км 1/0
[Ci fib]
+32.2 +0.5 13 +29 +36 жарко 1012.3 1008.0
12 22.08 ЮВ 5
{13}
20 км 8/0
[Ac trans]
+34.6 +0.3 11 +31 +33 жарко 1010.3 1006.1
15 22.08 ЮВ 4
{11}
20 км 9/0
[Ac As]
+32.1 +1.6 14 +29 +29 жарко 1009.2 1004.9 +35.0
18 22.08 ЮВ 4 10 км 8/0
[Ac As]
+29.7 +2.3 17 +27 +27 жарко 1010.1 1005.7
21 22.08 Ю 2
{10}
10 км 8/0
[Ac As]
+26.2 +4.4 25 +25 +25 комфорт 1010.7 1006.3
00 23.08 Ю 2 10 км ясно +23.9 +3.4 26 +23 +23 комфорт 1010.3 1005.9
03 23.08 штиль 0 20 км 8/0
[Ac As]
+20.0 +5.9 40 +21 +21 комфорт 1010.6 1006.1 +20.0
06 23.08 ЮВ 3 20 км 10/3 600 м
[Cb cap Ac und]
+26.0 +7.7 31 +26 +27 жарко 1010.1 1005.8 +19.6
09 23.08 Ю 2 20 км 10/5 600 м
[Cb cap Ac und]
+30.0 +9.7 28 +30 +32 жарко 1009.1 1004.8
12 23.08 Ю 7-14
{16}
20 км 10/6 600 м
[Cb cap Ac und]
+32.8 +12.7 29 +30 +30 жарко 1008.7 1004.4
15 23.08 З 4
{16}
10 км слабый ливневой дождь 10/10 600 м
[Cb cap]
+21.5 +15.7 70 +25 +25 комфорт 1012.0 1007.6 +32.9 0.3
18 23.08 Ю 1 10 км {ливн. осадки} ясно +19.7 +17.8 89 +23 +23 комфорт 1012.6 1008.2
21 23.08 ЮЗ 2 10 км 10/0
[Ac und]
+20.3 +18.1 87 +24 +24 комфорт 1013.7 1009.2
00 24.08 З 3 10 км 10/0
[Cs]
+18.5 +16.6 89 +19 +19 1014.5 1010.1
03 24.08 З 3 4000 м дымка 10/8 600 м
[Sc Cs]
+17.8 +16.0 89 +18 +18 1015.8 1011.3 +17.5 4

 

Местоположение метеостанции Калач-на-Дону (Волгоградская область, Россия): широта 48.68 долгота 43.48 высота над уровнем моря 38 м.

В архиве по умолчанию представлена погода в Калаче-на-Дону за последнюю неделю. Архивные данные за месяц целиком и за предыдущие месяцы, начиная с января 2011 года, Вы можете получить, выбрав интересующий диапазон дат из раскрывающегося списка и нажав кнопку "Ввод!".

Внимание! Время в таблицах - всемирное. Для получения местного времени необходимо прибавить поправку, которая в Калаче-на-Дону равна 3 ч.

Смотрите также архив погоды в соседних городах и на ближайших метеорологических станциях:

Погода в Нижнем Чире (Волгоградская область, Россия) (47 км)
Погода в Волгограде (Волгоградская область, Россия) (66 км)
Погода в Волгограде город (Волгоградская область, Россия) (71 км)
Погода в Иловле (Волгоградская область, Россия) (79 км)
Погода в Серафимовиче (Волгоградская область, Россия) (113 км)
Погода в Котельниково (Волгоградская область, Россия) (119 км)
Погода в Малых Дербетах (Калмыкия, Россия) (123 км)
Погода в Морозовске (Ростовская область, Россия) (124 км)
Погода в Фролове (Волгоградская область, Россия) (125 км)
Погода в Боковской (Ростовская область, Россия) (135 км)

Пояснения к столбцам:

Ветер - указаны скорость ветра в м/с - средняя за 10 мин, порывы в срок и между сроками (в фигурных скобках) и направление, откуда дует ветер: С - северный, СВ - северо-восточный, В - восточный, ЮВ - юго-восточный, Ю - южный, ЮЗ - юго-западный, З - западный, СЗ - северо-западный.
Видимость - горизонтальная дальность видимости в метрах или километрах. При видимости от 1 до 10 км при отсутствии осадков обычно наблюдается дымка, при ухудшении видимости до 1 км и менее - туман. В сухую погоду видимость может ухудшаться дымом, пылью или мглою.
Явления - указаны атмосферные явления, наблюдавшиеся в срок или в последний час перед сроком; фигурными скобками обозначены явления, наблюдавшиеся между сроками (за 1-3 часа до срока); квадратными скобками обозначены град или гололедные отложения с указанием их диаметра в мм.
Облачность - указаны через наклонную черту общая и нижняя облачность в баллах и высота нижней границы облаков в метрах; квадратными скобками обозначены формы облаков: Ci - перистые, Cs - перисто-слоистые, Cc - перисто-кучевые, Ac - высококучевые, As - высокослоистые, Sc - слоисто-кучевые, Ns - слоисто-дождевые, Cu - кучевые, Cb - кучево-дождевые. Подробнее классификацию облаков см. в Атласе облаков (PDF).
T - Температура воздуха - температура, измеренная на высоте 2 м над землей.
Td - Температура точки росы - температура, при понижении до которой содержащийся в воздухе водяной пар достигнет насыщения.
f - Относительная влажность воздуха - влажноcть воздуха, измеренная на высоте 2 м над землей.
Te - Эффективная температура - температура, которую ощущает одетый по сезону человек в тени. Характеристика душности погоды. При расчете учитывается влияние влажности воздуха и скорости ветра на теплоощущения человека.
Tes - Эффективная температура на солнце - температура, которую ощущает человек, с поправкой на солнечный нагрев. Характеристика знойности погоды. Зависит от высоты солнца над горизонтом, облачности и скорости ветра. Ночью, в пасмурную погоду, а также при ветре 12 м/с и более поправка равна нулю.
P - Атмосферное давление - приведенное к уровню моря атмосферное давление.
Po - Атмосферное давление - измеренное на уровне метеостанции атмосферное давление.
Tmin - Минимальная температура - минимум температуры воздуха на высоте 2 м над землей.
Tmax - Максимальная температура - максимум температуры воздуха на высоте 2 м над землей.
R - Количество осадков - Количество выпавших осадков за период времени, мм. При наведении курсора мыши на число - период времени, за который выпало указанное количество осадков.
R24 - Количество осадков - Количество выпавших осадков за 24 часа, мм.
S - Снежный покров - Высота снежного покрова, см. При наведении курсора мыши на число - состояние снежного покрова и степень покрытия местности в баллах.